Regional Weather Roundup
Issued by NWS

Home | Current Version | Previous Version | Text Only | Print | Product List | Glossary Off
Versions: 1 2 3 4 5 6 7 8 9 10 11 12 13 14 15 16 17 18 19 20 21 22 23 24 25 26 27 28 29 30 31 32 33 34 35 36 37 38 39 40 41 42 43 44 45 46 47 48 49 50

000
ASUS43 KMKX 261900
RWRWI

WISCONSIN REGIONAL WEATHER ROUNDUP
NATIONAL WEATHER SERVICE MILWAUKEE/SULLIVAN WI
200 PM CDT THU MAY 26 2016

NOTE: "FAIR" INDICATES FEW OR NO CLOUDS BELOW 12,000 FEET WITH NO
SIGNIFICANT WEATHER AND/OR OBSTRUCTIONS TO VISIBILITY.

WIZ001-002-006>008-014>016-023>028-262000-
NORTHWEST WISCONSIN

CITY           SKY/WX    TMP DP  RH WIND       PRES   REMARKS
SUPERIOR ARPT  CLOUDY    54  50  86 N5        29.82R
ASHLAND        CLOUDY    61  58  90 N6        29.81S
HAYWARD        MOSUNNY   74  57  55 VRB7      29.79S
SIREN          MOSUNNY   77  57  51 S8G16     29.79R
CUMBERLAND     MOSUNNY   73  55  53 W12       29.81R
RICE LAKE      SUNNY     76  55  48 S9        29.82R
CHETEK         SUNNY     76  57  51 W12       29.81R
LADYSMITH      MOSUNNY   74  60  59 SW7       29.81F
EAU CLAIRE     NOT AVBL
MENOMONIE      MOSUNNY   78  64  60 S10G16    29.81S HX  80
NEW RICHMOND   SUNNY     76  56  49 SW10G16   29.81S
OSCEOLA        MOSUNNY   78  58  50 W10       29.83S
$$

WIZ003>005-009-010-017-018-262000-
NORTH CENTRAL WISCONSIN

CITY           SKY/WX    TMP DP  RH WIND       PRES   REMARKS
MANITOWISH WTR NOT AVBL
ARBOR VITAE    PTSUNNY   69  61  76 CALM      29.81S
WOODRUFF       PTSUNNY   69  61  76 CALM      29.81S
RHINELANDER    PTSUNNY   68  59  73 S5        29.84R
EAGLE RIVER      N/A     65  62  90 NE7       29.82F
LAND O LAKES   LGT RAIN  62  60  93 NE5       29.83F
PHILLIPS       PTSUNNY   72  60  65 SW7       29.80S
TOMAHAWK       PTSUNNY   69  60  74 E3        29.82F
MEDFORD        PTSUNNY   69  62  78 SW9       29.83S
MERRILL        PTSUNNY   72  62  69 SW13      29.82F
$$

WIZ029-030-035-036-043>047-262000-
CENTRAL WISCONSIN

CITY           SKY/WX    TMP DP  RH WIND       PRES   REMARKS
WAUSAU         MOSUNNY   75  59  57 SW14G20   29.80F
MOSINEE        PTSUNNY   73  63  68 SW12      29.84S
MARSHFIELD     MOSUNNY   75  59  57 W15       29.83S
STEVENS POINT  MOSUNNY   73  58  59 SW14G22   29.83S
WAUPACA        PTSUNNY   79  61  54 W13G21    29.82F HX  80
WAUTOMA        PTSUNNY   80  61  52 SW12G17   29.83F HX  81
WISC RAPIDS    MOSUNNY   79  56  45 W14G21    29.84S HX  80
CAMP DOUGLAS   NOT AVBL
$$

WIZ011>013-019>022-031-037>040-048>050-262000-
NORTHEAST WISCONSIN

CITY           SKY/WX    TMP DP  RH WIND       PRES   REMARKS
ANTIGO         RAIN      66  62  85 NW8       29.83S
SHAWANO        PTSUNNY   76  62  62 W14G20    29.82R
OCONTO         PTSUNNY   69  69 100 N6        29.80R
STURGEON BAY   NOT AVBL
GREEN BAY      MOSUNNY   78  63  59 W16G26    29.80S HX  80
MANITOWOC      NOT AVBL
APPLETON       PTSUNNY   75  59  57 W23       29.81F
CLINTONVILLE   PTSUNNY   73  59  60 W13G20    29.82S
OSHKOSH        SUNNY     79  62  56 W13G20    29.81F HX  80
$$

WIZ032>034-041-042-053>061-262000-
SOUTHWEST WISCONSIN

CITY           SKY/WX    TMP DP  RH WIND       PRES   REMARKS
LA CROSSE      SUNNY     80  59  48 SW10      29.83S HX  81
SPARTA         MOSUNNY   76  61  57 W6        29.85S
VIROQUA        MOSUNNY   76  60  57 W17       29.88R
BOSCOBEL       SUNNY     82  57  42 W10G20    29.86S HX  82
PRAIRIE DU CHI SUNNY     81  54  39 SW9       29.86S HX  80
PLATTEVILLE    SUNNY     82  52  35 W14G20    29.88S HX  81
$$

WIZ056-057-062-063-064-067-068-262000-
SOUTH CENTRAL WISCONSIN

CITY           SKY/WX    TMP DP  RH WIND       PRES   REMARKS
REEDSBURG      SUNNY     78  60  53 W15       29.85S HX  80
BARABOO/DELLS  SUNNY     79  56  44 W13G20    29.85S
LONE ROCK      NOT AVBL
MINERAL POINT  SUNNY     81  54  39 SW9G16    29.88R HX  80
MADISON        PTSUNNY   80  59  48 W9        29.85R HX  81
MIDDLETON      SUNNY     81  59  47 SW12G20   29.85S HX  81
WATERTOWN      SUNNY     80  63  56 SW15      29.84F HX  81
MONROE         MOSUNNY   81  55  41 SW14G20   29.88S HX  80
JANESVILLE     MOSUNNY   82  59  44 SW14G20   29.86F HX  82
$$

WIZ051-052-058>065-066-070>072-262000-
SOUTHEAST WISCONSIN

CITY           SKY/WX    TMP DP  RH WIND       PRES   REMARKS
MILWAUKEE      PTSUNNY   80  62  54 SW17      29.86S HX  81
WAUKESHA       SUNNY     79  57  47 SW16G24   29.87F HX  80
MILWAUKEE/TIMM SUNNY     81  59  47 S14       29.85F HX  81
RACINE         MOSUNNY   78  64  61 S7        29.88F HX  80
BURLINGTON     PTSUNNY   78  59  51 SW16G22   29.87F
KENOSHA        MOSUNNY   79  64  60 SW14      29.87F HX  81
FOND DU LAC    SUNNY     80  61  52 SW14G22   29.83S HX  81
SHEBOYGAN      SUNNY     81  59  47 SW20G30   29.82F HX  81
WEST BEND      MOSUNNY   79  59  50 SW10G20   29.84F HX  80
JUNEAU         SUNNY     77  62  59 SW17      29.86S
$$

LSZ147-162-262000-
LAKE SUPERIOR

STATION/POSITION TIME  TEMP    WIND        PRES    WAVE
                       AIR SEA DIR/SP/G            HT/PER
                 (UTC) (F)     (DEG/KT/KT) (MB)    (FT/S)
W MID LAKE BUOY  1750   40 38  100/ 12/ 14 1010.2F   1/ 3
DEVILS ISLAND    1800   45      40/  7/  8 1010.2R
PORT WING        1740   42     330/  4/  4 1010.2
SAXON HARBOR     1800   54     200/  5/  7 1009.1F
$$

LMZ867-665-643>646-262000-
LAKE MICHIGAN

STATION/POSITION TIME  TEMP    WIND        PRES    WAVE
                       AIR SEA DIR/SP/G            HT/PER
                 (UTC) (F)     (DEG/KT/KT) (MB)    (FT/S)
CHAMBERS ISLAND  1800   64      60/  6/  8 1008.8F
N MID LAKE BUOY  1750   48 45  180/ 10/ 10 1009.8F   2/ 3
NORTHPORT PIER   1800   52     140/  9/ 10 1009.1F
SISTER BAY       1819   70     150/ 13/ 16   N/A
ALGOMA LAKESHORE 1817          200/  8/ 10   N/A
KEWAUNEE LAKESHO 1800   52     130/  3/  5 1009.1F
SHEBOYGAN LAKESH 1800   59     180/ 23/ 24 1010.5R
PORT WASHINGTON  1800   62     180/ 10/ 13 1011.2F
S MID LAKE BUOY  1750   56 49  180/ 12/ 14 1012.0F   1/ 3
KENOSHA   LAKESH 1800   61     180/ 11/ 15 1011.2F
$$

TC  - TEMPERATURE IN CELSIUS
VSB - VISIBILITY IN STATUTE MILES
WCI - WIND CHILL INDEX
HX  - HEAT INDEX





USA.gov is the U.S. government's official web portal to all federal, state and local government web resources and services.